• In Netherlands
  • List of Countries
  • For 7 days
  • Water Temperature
  • Satellite Maps
  • Weather Map
  • Weather Widgets
  • user-avatar
    Login

    Hourly Weather Primorsko

    Today, 1 March, Wednesday

    Time Temperature Precipitation Wind Pressure Humidity
    00:00 +8°C° 0 mm 2 mps 759 mmHg 89%
    01:00 +8°C° 0 mm 2 mps 759 mmHg 90%
    02:00 +8°C° 0 mm 2 mps 759 mmHg 90%
    03:00 +7°C° 0 mm 2 mps 758 mmHg 90%
    04:00 +7°C° 0 mm 2 mps 758 mmHg 91%
    05:00 +7°C° 0 mm 3 mps 758 mmHg 91%
    06:00 +8°C° 0 mm 3 mps 758 mmHg 90%
    07:00 +9°C° 0 mm 3 mps 758 mmHg 88%
    08:00 +8°C° 0 mm 4 mps 757 mmHg 85%
    09:00 +10°C° 0 mm 5 mps 757 mmHg 79%
    10:00 +13°C° 0 mm 5 mps 757 mmHg 73%
    11:00 +15°C° 0 mm 6 mps 756 mmHg 68%
    12:00 +16°C° 0 mm 6 mps 756 mmHg 67%
    13:00 +17°C° 0 mm 7 mps 755 mmHg 65%
    14:00 +17°C° 0 mm 7 mps 755 mmHg 64%
    15:00 +17°C° 0 mm 7 mps 755 mmHg 68%
    16:00 +16°C° 0 mm 6 mps 754 mmHg 72%
    17:00 +15°C° 0 mm 6 mps 754 mmHg 76%
    18:00 +15°C° 0 mm 6 mps 754 mmHg 80%
    19:00 +14°C° 0 mm 6 mps 754 mmHg 84%
    20:00 +13°C° 0 mm 6 mps 754 mmHg 88%
    21:00 +11°C° 0 mm 6 mps 754 mmHg 89%
    22:00 +11°C° 0 mm 6 mps 754 mmHg 90%
    23:00 +12°C° 0 mm 5 mps 754 mmHg 91%

    Tomorrow, 2 March, Thursday

    Time Temperature Precipitation Wind Pressure Humidity
    00:00 +10°C° 0 mm 5 mps 754 mmHg 91%
    01:00 +10°C° 0 mm 5 mps 754 mmHg 92%
    02:00 +11°C° 0 mm 4 mps 754 mmHg 93%
    03:00 +10°C° 0.3 mm 4 mps 755 mmHg 90%
    04:00 +9°C° 0.3 mm 5 mps 755 mmHg 88%
    05:00 +8°C° 0.3 mm 5 mps 755 mmHg 85%
    06:00 +8°C° 0.1 mm 5 mps 756 mmHg 83%
    07:00 +8°C° 0.1 mm 4 mps 756 mmHg 81%
    08:00 +7°C° 0.1 mm 4 mps 757 mmHg 78%
    09:00 +8°C° 0.2 mm 5 mps 757 mmHg 78%
    10:00 +8°C° 0.2 mm 5 mps 758 mmHg 78%
    11:00 +8°C° 0.2 mm 6 mps 759 mmHg 78%
    12:00 +9°C° 0.1 mm 6 mps 759 mmHg 78%
    13:00 +9°C° 0.1 mm 6 mps 759 mmHg 78%
    14:00 +9°C° 0.1 mm 6 mps 760 mmHg 78%
    15:00 +9°C° 0 mm 5 mps 760 mmHg 79%
    16:00 +9°C° 0 mm 5 mps 760 mmHg 79%
    17:00 +10°C° 0 mm 4 mps 761 mmHg 79%
    18:00 +8°C° 0 mm 4 mps 761 mmHg 82%
    19:00 +8°C° 0 mm 3 mps 761 mmHg 85%
    20:00 +7°C° 0 mm 3 mps 762 mmHg 89%
    21:00 +7°C° 0 mm 3 mps 762 mmHg 89%
    22:00 +7°C° 0 mm 3 mps 762 mmHg 89%
    23:00 +7°C° 0 mm 3 mps 763 mmHg 89%

    Day after tomorrow, 3 March, Friday

    Time Temperature Precipitation Wind Pressure Humidity
    00:00 +6°C° 0 mm 2 mps 763 mmHg 88%
    01:00 +6°C° 0 mm 2 mps 763 mmHg 87%
    02:00 +6°C° 0 mm 2 mps 763 mmHg 86%
    03:00 +6°C° 0 mm 2 mps 763 mmHg 86%
    04:00 +5°C° 0 mm 2 mps 762 mmHg 86%
    05:00 +5°C° 0 mm 2 mps 762 mmHg 86%
    06:00 +7°C° 0 mm 1 mps 763 mmHg 83%
    07:00 +8°C° 0 mm 1 mps 763 mmHg 81%
    08:00 +9°C° 0 mm 1 mps 763 mmHg 78%
    09:00 +10°C° 0 mm 1 mps 764 mmHg 71%
    10:00 +12°C° 0 mm 1 mps 764 mmHg 65%
    11:00 +14°C° 0 mm 1 mps 764 mmHg 58%
    12:00 +14°C° 0 mm 1 mps 764 mmHg 55%
    13:00 +15°C° 0 mm 1 mps 763 mmHg 51%
    14:00 +16°C° 0 mm 1 mps 763 mmHg 48%
    15:00 +15°C° 0 mm 1 mps 763 mmHg 52%
    16:00 +14°C° 0 mm 1 mps 763 mmHg 56%
    17:00 +14°C° 0 mm 2 mps 763 mmHg 61%
    18:00 +12°C° 0 mm 2 mps 764 mmHg 64%
    19:00 +10°C° 0 mm 2 mps 764 mmHg 67%
    20:00 +8°C° 0 mm 2 mps 765 mmHg 70%
    21:00 +9°C° 0 mm 1 mps 765 mmHg 72%
    22:00 +8°C° 0 mm 1 mps 765 mmHg 74%
    23:00 +8°C° 0 mm 1 mps 765 mmHg 76%

    4 March, Saturday

    Time Temperature Precipitation Wind Pressure Humidity
    00:00 +8°C° 0 mm 1 mps 765 mmHg 78%
    01:00 +7°C° 0 mm 1 mps 766 mmHg 79%
    02:00 +7°C° 0 mm 1 mps 766 mmHg 80%
    03:00 +7°C° 0 mm 1 mps 766 mmHg 80%
    04:00 +7°C° 0 mm 1 mps 766 mmHg 80%
    05:00 +6°C° 0 mm 2 mps 766 mmHg 80%
    06:00 +6°C° 0 mm 2 mps 766 mmHg 77%
    07:00 +7°C° 0 mm 2 mps 766 mmHg 75%
    08:00 +8°C° 0 mm 2 mps 766 mmHg 73%
    09:00 +10°C° 0 mm 3 mps 766 mmHg 67%
    10:00 +11°C° 0 mm 3 mps 766 mmHg 62%
    11:00 +13°C° 0 mm 4 mps 766 mmHg 56%
    12:00 +13°C° 0 mm 4 mps 766 mmHg 56%
    13:00 +14°C° 0 mm 4 mps 766 mmHg 55%
    14:00 +14°C° 0 mm 4 mps 765 mmHg 55%
    15:00 +13°C° 0 mm 4 mps 765 mmHg 59%
    16:00 +12°C° 0 mm 4 mps 765 mmHg 63%
    17:00 +11°C° 0 mm 4 mps 765 mmHg 67%
    18:00 +10°C° 0 mm 4 mps 765 mmHg 69%
    19:00 +8°C° 0 mm 3 mps 765 mmHg 71%
    20:00 +7°C° 0 mm 3 mps 765 mmHg 74%
    21:00 +5°C° 0 mm 3 mps 765 mmHg 73%
    22:00 +6°C° 0 mm 2 mps 765 mmHg 73%
    23:00 +6°C° 0 mm 2 mps 765 mmHg 73%

    5 March, Sunday

    Time Temperature Precipitation Wind Pressure Humidity
    00:00 +5°C° 0 mm 2 mps 765 mmHg 74%
    01:00 +6°C° 0 mm 1 mps 765 mmHg 76%
    02:00 +6°C° 0 mm 1 mps 764 mmHg 77%
    03:00 +6°C° 0 mm 1 mps 764 mmHg 78%
    04:00 +6°C° 0 mm 1 mps 764 mmHg 80%
    05:00 +5°C° 0 mm 1 mps 764 mmHg 81%
    06:00 +6°C° 0 mm 1 mps 764 mmHg 78%
    07:00 +8°C° 0 mm 1 mps 764 mmHg 75%
    08:00 +9°C° 0 mm 1 mps 764 mmHg 72%
    09:00 +11°C° 0 mm 1 mps 764 mmHg 66%
    10:00 +13°C° 0 mm 1 mps 764 mmHg 59%
    11:00 +15°C° 0 mm 1 mps 764 mmHg 52%
    12:00 +16°C° 0 mm 2 mps 764 mmHg 51%
    13:00 +17°C° 0 mm 2 mps 763 mmHg 50%
    14:00 +18°C° 0 mm 3 mps 763 mmHg 49%
    15:00 +17°C° 0 mm 3 mps 763 mmHg 55%
    16:00 +16°C° 0 mm 3 mps 763 mmHg 60%
    17:00 +14°C° 0 mm 3 mps 763 mmHg 66%
    18:00 +13°C° 0 mm 3 mps 763 mmHg 70%
    19:00 +11°C° 0 mm 3 mps 763 mmHg 74%
    20:00 +10°C° 0 mm 3 mps 763 mmHg 78%
    21:00 +10°C° 0 mm 3 mps 763 mmHg 80%
    22:00 +9°C° 0 mm 3 mps 763 mmHg 81%
    23:00 +9°C° 0 mm 3 mps 763 mmHg 82%

    6 March, Monday

    Time Temperature Precipitation Wind Pressure Humidity
    00:00 +9°C° 0 mm 3 mps 762 mmHg 83%
    01:00 +8°C° 0 mm 2 mps 762 mmHg 83%
    02:00 +8°C° 0 mm 2 mps 762 mmHg 83%
    03:00 +8°C° 0 mm 2 mps 762 mmHg 83%
    04:00 +8°C° 0 mm 2 mps 761 mmHg 83%
    05:00 +8°C° 0 mm 2 mps 761 mmHg 83%
    06:00 +9°C° 0 mm 2 mps 761 mmHg 80%
    07:00 +9°C° 0 mm 2 mps 761 mmHg 76%
    08:00 +10°C° 0 mm 2 mps 761 mmHg 73%
    09:00 +12°C° 0 mm 3 mps 761 mmHg 67%
    10:00 +14°C° 0 mm 3 mps 761 mmHg 61%
    11:00 +17°C° 0 mm 3 mps 760 mmHg 56%
    12:00 +18°C° 0 mm 3 mps 760 mmHg 54%
    13:00 +18°C° 0 mm 3 mps 760 mmHg 53%
    14:00 +19°C° 0 mm 3 mps 759 mmHg 51%
    15:00 +18°C° 0 mm 3 mps 759 mmHg 56%
    16:00 +17°C° 0 mm 3 mps 759 mmHg 60%
    17:00 +16°C° 0 mm 3 mps 759 mmHg 65%
    18:00 +13°C° 0 mm 3 mps 759 mmHg 68%
    19:00 +12°C° 0 mm 3 mps 759 mmHg 71%
    20:00 +12°C° 0 mm 2 mps 760 mmHg 73%
    21:00 +10°C° 0 mm 2 mps 760 mmHg 75%
    22:00 +10°C° 0 mm 2 mps 760 mmHg 76%
    23:00 +10°C° 0 mm 2 mps 760 mmHg 78%
    Show more